[[{"header":{"parameterUnit":"m.s-1","parameterCategory":1,"la1":30.2991,"la2":30.254,"lo1":-89.0895,"lo2":-89.0444,"dy":0.0017,"dx":0.0017,"nx":28,"ny":28,"refTime":"2026-02-11T03:00:00:Z","depth":0,"parameterNumber":2,"parameterNumberName":"U-component_of_WINDS"},"data":[0,0,0,0,0,0,0,0,0,0,0,0,0,0,0,0,0,0,0,0,0,0,0,0,0,0,0,0,0,0,0,0,0,0,0,0,0,0,0,0,0,0,0,0,0,0,0,0,0,0,0,0,0,0,0,0,0,0,-0.9544,-0.9543,0,-0.9483,-0.9482,-0.9481,-0.9405,-0.9404,-0.9403,-0.9401,-0.9341,-0.934,-0.934,0,0,0,0,0,0,0,0,0,0,0,0,0,-0.9597,-0.9596,-0.9544,-0.9543,-0.9542,-0.9483,-0.9482,-0.9481,-0.9405,-0.9404,-0.9402,-0.9401,-0.9341,-0.934,-0.934,0,0,0,0,0,0,0,0,0,0,0,0,0,-0.9559,-0.9596,-0.9544,-0.9497,-0.9492,-0.9483,-0.9482,-0.9481,-0.9406,-0.9404,-0.9402,-0.94,-0.9341,-0.934,-0.9339,-0.9372,0,0,-0.9337,-0.9337,0,0,0,0,0,0,0,0,-0.9561,-0.9557,-0.9505,-0.95,-0.9495,-0.945,-0.9478,-0.9444,-0.9406,-0.9439,-0.9401,-0.9399,-0.9378,-0.9374,-0.9367,-0.9369,-0.9366,-0.9337,-0.9337,-0.9336,-0.9336,0,0,0,0,0,0,0,-0.9564,-0.9559,-0.952,-0.9504,-0.9498,-0.948,-0.9473,-0.9472,-0.942,-0.9436,-0.943,-0.9424,-0.9375,-0.9368,-0.9365,-0.9365,-0.9337,-0.9337,-0.9336,-0.9336,-0.9392,-0.9394,0,0,0,0,0,0,-0.9573,-0.9562,-0.9522,-0.9518,-0.9524,-0.9481,-0.9472,-0.9466,-0.9419,-0.941,-0.9425,-0.942,-0.937,-0.9366,-0.9363,-0.9398,-0.9336,-0.9336,-0.9335,-0.9391,-0.9393,-0.9395,0,0,0,0,0,0,-0.9575,-0.957,-0.9524,-0.9538,-0.9531,-0.9482,-0.9475,-0.9466,-0.9458,-0.9412,-0.9402,-0.9427,-0.9369,-0.9364,-0.937,-0.9395,-0.9335,-0.9335,-0.9388,-0.9391,-0.9394,-0.9469,0,0,0,0,0,0,-0.9576,-0.9571,-0.9582,-0.9539,-0.9531,-0.9532,-0.9477,-0.9466,-0.9457,-0.945,-0.9411,-0.9402,-0.9367,-0.9372,-0.937,-0.9393,-0.9334,-0.9386,-0.939,-0.9393,-0.9464,-0.9474,-0.9483,0,0,0,0,0,-0.9579,-0.9605,-0.9583,-0.9579,-0.9543,-0.9533,-0.9529,-0.9486,-0.9459,-0.947,-0.9441,-0.9404,-0.9393,-0.9373,-0.937,-0.9393,-0.9384,-0.9389,-0.9393,-0.946,-0.9472,-0.9483,0,0,0,0,0,0,-0.9652,-0.9599,-0.9573,-0.9587,-0.9565,-0.9521,-0.9533,-0.9501,-0.9486,-0.948,-0.9429,-0.9421,-0.9434,-0.9415,-0.9394,-0.9423,-0.9383,-0.9387,-0.9435,-0.9447,-0.9456,-0.946,-0.9334,0,0,0,0,0,-0.967,-0.9666,-0.962,-0.9637,-0.9627,-0.9583,-0.9577,-0.9546,-0.9522,-0.9513,-0.9483,-0.9462,-0.9454,-0.9449,-0.9439,-0.9462,-0.9453,-0.9476,-0.9486,-0.9494,-0.9497,-0.951,-0.952,-0.9409,-0.9409,-0.9409,0,0,-0.9707,-0.9677,-0.9678,-0.9651,-0.963,-0.9629,-0.9575,-0.9575,-0.9573,-0.9513,-0.9517,-0.9495,-0.9468,-0.9483,-0.9488,-0.9467,-0.9526,-0.9499,-0.9506,-0.9505,-0.9515,-0.9526,-0.9535,-0.9412,-0.9412,-0.9411,0,0,-0.9773,-0.975,-0.9761,-0.9743,-0.9713,-0.9683,-0.9687,-0.9647,-0.9631,-0.9634,-0.9589,-0.9588,-0.9574,-0.9557,-0.9546,-0.9609,-0.9575,-0.9608,-0.9656,-0.9668,-0.9677,-0.9685,-0.9708,-0.9717,-0.9612,-0.9612,-0.9612,0,-0.9822,-0.9817,-0.9772,-0.9775,-0.9765,-0.9711,-0.9723,-0.9707,-0.9676,-0.9671,-0.9648,-0.9631,-0.9609,-0.962,-0.9636,-0.9629,-0.9632,-0.9611,-0.9679,-0.9687,-0.9693,-0.9714,-0.9723,-0.9616,-0.9616,-0.9615,-0.9615,0,-0.9879,-0.9877,-0.989,-0.9861,-0.9853,-0.9861,-0.9819,-0.9816,-0.9788,-0.9761,-0.9767,-0.9739,-0.9723,-0.9723,-0.9695,-0.9731,-0.9719,-0.9689,-0.9647,-0.9708,-0.9728,-0.9736,-0.9622,-0.9621,-0.9619,-0.9618,0,0,-0.9987,-0.9936,-0.9942,-0.9929,-0.9893,-0.9891,-0.9898,-0.9882,-0.9881,-0.9862,-0.9867,-0.9858,-0.9831,-0.9819,-0.9789,-0.98,-0.9853,-0.9768,-0.9766,-0.9785,-0.9893,-0.9916,-0.9926,-0.9831,-0.9832,-0.9833,-0.9895,0,-1.0047,-1.0054,-1.0015,-1.0033,-1.0031,-0.9981,-0.9987,-0.9967,-0.9943,-0.9938,-0.9912,-0.9907,-0.987,-0.9863,-0.9872,-0.9845,-0.9874,-0.984,-0.9835,-0.9836,-0.9843,-0.9936,-0.996,-1.0019,-0.9902,-0.9903,-0.9904,0,-1.0116,-1.0101,-1.0119,-1.0085,-1.0082,-1.0088,-1.0072,-1.0068,-1.0045,-1.0027,-1.0016,-0.9982,-0.9987,-0.9949,-0.9956,-0.9934,-0.993,-0.9917,-0.9918,-0.9916,-0.9873,-0.9936,-1.0037,-1.0046,-0.9916,-0.9915,-0.9914,0,-1.0193,-1.0179,-1.0188,-1.0178,-1.0138,-1.0144,-1.0128,-1.0103,-1.0097,-1.0083,-1.0079,-1.0066,-1.0059,-1.0051,-1.0015,-0.999,-1.0028,-0.9986,-1.0014,-1.0015,-1.0023,-1.0023,-1.0125,-1.0021,-1.0021,-1.0021,-1.0021,0,-1.0263,-1.0276,-1.0222,-1.0228,-1.0242,-1.0198,-1.0213,-1.0192,-1.0171,-1.0173,-1.013,-1.0132,-1.0084,-1.0082,-1.0055,-1.0066,-1.0063,-1.005,-1.0042,-1.0053,-1.0055,-1.005,-1.0045,-1.0023,-1.0023,-1.0022,-1.0022,0,-1.0351,-1.0316,-1.0323,-1.0285,-1.0276,-1.0288,-1.0256,-1.0261,-1.0235,-1.0238,-1.0236,-1.0197,-1.0192,-1.0156,-1.0143,-1.0124,-1.0147,-1.0131,-1.0154,-1.0149,-1.0179,-1.0177,-1.0281,-1.0293,-1.0182,-1.0184,-1.0184,0,-1.0398,-1.0407,-1.0371,-1.0369,-1.0355,-1.0352,-1.0346,-1.0305,-1.03,-1.0276,-1.0284,-1.0276,-1.0268,-1.0263,-1.0234,-1.0225,-1.0208,-1.0246,-1.0207,-1.0219,-1.021,-1.0209,-1.0211,-1.0254,-1.0255,-1.0256,-1.0257,0,-1.0485,-1.0467,-1.046,-1.0447,-1.0441,-1.0429,-1.0415,-1.0416,-1.0371,-1.0368,-1.0363,-1.0357,-1.0345,-1.0338,-1.0324,-1.0308,-1.0276,-1.027,-1.0276,-1.0288,-1.0301,-1.0295,-1.0177,-1.0268,-1.0267,-1.0266,-1.0265,-1.0265,-1.0553,-1.056,-1.0536,-1.053,-1.0515,-1.0503,-1.0506,-1.0482,-1.0477,-1.0463,-1.044,-1.0439,-1.0418,-1.0396,-1.0383,-1.0383,-1.0364,-1.0372,-1.0374,-1.0377,-1.0384,-1.0302,-1.038,-1.038,-1.038,-1.0379,-1.0379,0,-1.0638,-1.0621,-1.0616,-1.0597,-1.0594,-1.0564,-1.0547,-1.0546,-1.0545,-1.0529,-1.0522,-1.0517,-1.0511,-1.0482,-1.0474,-1.0479,-1.0464,-1.0478,-1.0477,-1.0474,-1.0401,-1.0397,-1.049,-1.049,-1.049,-1.049,-1.049,-1.049,-1.0681,-1.0691,-1.0672,-1.0674,-1.0657,-1.0656,-1.0649,-1.0639,-1.0625,-1.0622,-1.0617,-1.0598,-1.0577,-1.0567,-1.0561,-1.0553,-1.0552,-1.0571,-1.0558,-1.049,-1.0479,-1.0469,-1.0465,-1.0571,-1.0571,-1.0631,-1.0632,-1.0632]},{"header":{"parameterUnit":"m.s-1","parameterCategory":1,"la1":30.2991,"la2":30.254,"lo1":-89.0895,"lo2":-89.0444,"dy":0.0017,"dx":0.0017,"nx":28,"ny":28,"refTime":"2026-02-11T03:00:00:Z","depth":0,"parameterNumber":3,"parameterNumberName":"V-component_of_WINDS"},"data":[0,0,0,0,0,0,0,0,0,0,0,0,0,0,0,0,0,0,0,0,0,0,0,0,0,0,0,0,0,0,0,0,0,0,0,0,0,0,0,0,0,0,0,0,0,0,0,0,0,0,0,0,0,0,0,0,0,0,-0.4,-0.4,0,-0.3975,-0.3975,-0.3974,-0.3939,-0.3938,-0.3937,-0.3937,-0.3912,-0.3912,-0.3911,0,0,0,0,0,0,0,0,0,0,0,0,0,-0.4018,-0.4018,-0.4,-0.4,-0.3999,-0.3975,-0.3975,-0.3974,-0.3939,-0.3938,-0.3937,-0.3937,-0.3912,-0.3912,-0.3911,0,0,0,0,0,0,0,0,0,0,0,0,0,-0.4003,-0.4018,-0.4,-0.3979,-0.3977,-0.3975,-0.3975,-0.3974,-0.3939,-0.3938,-0.3937,-0.3936,-0.3912,-0.3912,-0.3911,-0.3929,0,0,-0.3911,-0.3911,0,0,0,0,0,0,0,0,-0.4004,-0.4003,-0.3982,-0.398,-0.3978,-0.3959,-0.3972,-0.3959,-0.3939,-0.3953,-0.3937,-0.3936,-0.3928,-0.3927,-0.3924,-0.3928,-0.3927,-0.3911,-0.3911,-0.3911,-0.3911,0,0,0,0,0,0,0,-0.4005,-0.4003,-0.399,-0.3982,-0.3979,-0.3971,-0.3967,-0.3969,-0.3946,-0.3952,-0.3949,-0.3947,-0.3927,-0.3924,-0.3923,-0.3926,-0.3911,-0.3911,-0.3911,-0.3911,-0.3943,-0.3944,0,0,0,0,0,0,-0.4009,-0.4004,-0.3991,-0.3989,-0.3989,-0.3971,-0.3968,-0.3966,-0.3946,-0.3942,-0.3948,-0.3945,-0.3925,-0.3923,-0.3922,-0.3941,-0.3911,-0.3911,-0.3911,-0.3942,-0.3943,-0.3944,0,0,0,0,0,0,-0.401,-0.4008,-0.3992,-0.3996,-0.3993,-0.3972,-0.397,-0.3966,-0.3963,-0.3943,-0.3939,-0.3949,-0.3924,-0.3922,-0.3927,-0.3939,-0.3911,-0.3911,-0.3941,-0.3942,-0.3944,-0.3978,0,0,0,0,0,0,-0.401,-0.4009,-0.4015,-0.3997,-0.3993,-0.3998,-0.3971,-0.3966,-0.3963,-0.396,-0.3943,-0.3939,-0.3923,-0.3928,-0.3927,-0.3939,-0.391,-0.394,-0.3941,-0.3943,-0.3976,-0.3981,-0.3985,0,0,0,0,0,-0.4011,-0.4026,-0.4015,-0.4014,-0.4001,-0.3998,-0.3996,-0.3977,-0.3964,-0.397,-0.3957,-0.394,-0.3938,-0.3929,-0.3928,-0.3939,-0.3939,-0.3941,-0.3943,-0.3974,-0.398,-0.3985,0,0,0,0,0,0,-0.4046,-0.4023,-0.4011,-0.4021,-0.4012,-0.3992,-0.3999,-0.3984,-0.3979,-0.3976,-0.3953,-0.3949,-0.3957,-0.3949,-0.3938,-0.3955,-0.3936,-0.3938,-0.396,-0.3965,-0.397,-0.3971,-0.391,0,0,0,0,0,-0.4055,-0.4055,-0.4035,-0.4045,-0.4041,-0.4021,-0.4019,-0.4006,-0.3995,-0.3992,-0.3979,-0.397,-0.3967,-0.3966,-0.3962,-0.3975,-0.3971,-0.3983,-0.3987,-0.3991,-0.3992,-0.3998,-0.4003,-0.3951,-0.3951,-0.3951,0,0,-0.4074,-0.4061,-0.4062,-0.4052,-0.4043,-0.4044,-0.4018,-0.402,-0.402,-0.3992,-0.3995,-0.3986,-0.3975,-0.3983,-0.3987,-0.3976,-0.4006,-0.3993,-0.3997,-0.3996,-0.4001,-0.4006,-0.401,-0.3953,-0.3952,-0.3952,0,0,-0.4107,-0.4097,-0.4105,-0.4097,-0.4084,-0.4071,-0.4072,-0.4055,-0.4048,-0.4051,-0.403,-0.403,-0.4026,-0.4019,-0.4014,-0.4045,-0.4029,-0.4045,-0.4068,-0.4073,-0.4077,-0.4081,-0.4091,-0.4095,-0.4047,-0.4047,-0.4047,0,-0.4131,-0.413,-0.411,-0.4113,-0.4109,-0.4084,-0.4091,-0.4084,-0.4071,-0.4069,-0.4058,-0.4053,-0.4043,-0.4049,-0.4057,-0.4055,-0.4056,-0.4046,-0.4078,-0.4082,-0.4085,-0.4094,-0.4098,-0.4049,-0.4049,-0.4049,-0.4048,0,-0.4161,-0.4161,-0.4168,-0.4156,-0.4153,-0.4158,-0.4138,-0.4138,-0.4125,-0.4112,-0.4116,-0.4104,-0.4097,-0.4098,-0.4085,-0.4103,-0.4097,-0.4083,-0.4063,-0.4092,-0.41,-0.4104,-0.4052,-0.4051,-0.4051,-0.405,0,0,-0.4214,-0.4191,-0.4194,-0.4188,-0.4173,-0.4172,-0.4176,-0.417,-0.4169,-0.4162,-0.4164,-0.4162,-0.4148,-0.4143,-0.413,-0.4135,-0.4159,-0.412,-0.4119,-0.4127,-0.4177,-0.4187,-0.4191,-0.4149,-0.4149,-0.415,-0.4177,0,-0.4244,-0.4249,-0.4231,-0.4241,-0.424,-0.4217,-0.422,-0.4211,-0.42,-0.4198,-0.4186,-0.4184,-0.4167,-0.4164,-0.4168,-0.4155,-0.4169,-0.4153,-0.415,-0.415,-0.4153,-0.4196,-0.4207,-0.4233,-0.4181,-0.4181,-0.4182,0,-0.4279,-0.4272,-0.4282,-0.4266,-0.4265,-0.4268,-0.4261,-0.4259,-0.4249,-0.424,-0.4235,-0.4219,-0.4222,-0.4204,-0.4207,-0.4197,-0.4195,-0.4188,-0.4189,-0.4187,-0.4167,-0.4194,-0.4241,-0.4245,-0.4187,-0.4186,-0.4186,0,-0.4316,-0.431,-0.4315,-0.4311,-0.4292,-0.4295,-0.4287,-0.4276,-0.4273,-0.4266,-0.4264,-0.4259,-0.4255,-0.4251,-0.4234,-0.4222,-0.4239,-0.422,-0.4232,-0.4232,-0.4235,-0.4235,-0.4281,-0.4236,-0.4236,-0.4236,-0.4235,0,-0.435,-0.4357,-0.4331,-0.4334,-0.4341,-0.432,-0.4328,-0.4318,-0.4308,-0.4308,-0.4288,-0.4289,-0.4267,-0.4265,-0.4252,-0.4256,-0.4255,-0.4248,-0.4244,-0.4249,-0.425,-0.4247,-0.4244,-0.4237,-0.4236,-0.4236,-0.4236,0,-0.4393,-0.4376,-0.4379,-0.4362,-0.4357,-0.4363,-0.4348,-0.435,-0.4337,-0.4338,-0.4337,-0.4319,-0.4316,-0.4298,-0.4292,-0.4283,-0.4291,-0.4285,-0.4295,-0.4292,-0.4305,-0.4304,-0.435,-0.4355,-0.4307,-0.4308,-0.4308,0,-0.4415,-0.4419,-0.4402,-0.4401,-0.4394,-0.4393,-0.439,-0.437,-0.4368,-0.4356,-0.4359,-0.4355,-0.435,-0.4346,-0.4332,-0.4327,-0.4319,-0.4336,-0.4318,-0.4323,-0.4318,-0.4318,-0.4318,-0.4339,-0.434,-0.434,-0.4341,0,-0.4456,-0.4448,-0.4444,-0.4438,-0.4434,-0.4428,-0.4421,-0.4421,-0.44,-0.4398,-0.4395,-0.4391,-0.4384,-0.438,-0.4372,-0.4364,-0.4349,-0.4346,-0.4349,-0.4353,-0.4359,-0.4355,-0.4304,-0.4345,-0.4345,-0.4344,-0.4344,-0.4344,-0.4489,-0.4491,-0.4479,-0.4476,-0.4468,-0.4462,-0.4463,-0.4451,-0.4448,-0.444,-0.4429,-0.4428,-0.4417,-0.4405,-0.4398,-0.4396,-0.4387,-0.4391,-0.4392,-0.4393,-0.4395,-0.436,-0.4395,-0.4395,-0.4395,-0.4395,-0.4394,0,-0.4528,-0.4519,-0.4516,-0.4507,-0.4504,-0.449,-0.4481,-0.448,-0.4478,-0.447,-0.4465,-0.4462,-0.4457,-0.4443,-0.4437,-0.4438,-0.4431,-0.4437,-0.4436,-0.4435,-0.4404,-0.4402,-0.4443,-0.4443,-0.4443,-0.4443,-0.4443,-0.4443,-0.4548,-0.4552,-0.4542,-0.4542,-0.4533,-0.4531,-0.4527,-0.4521,-0.4514,-0.451,-0.4507,-0.4497,-0.4486,-0.4479,-0.4474,-0.447,-0.4469,-0.4477,-0.4471,-0.4442,-0.4437,-0.4433,-0.4431,-0.4477,-0.4477,-0.4502,-0.4502,-0.4502]}]]